FW3884 Weather Reports


time (UTC)temp
C
wind
direction
speed
KPH
gust
KPH
rain 1hr
cm
rain 24hr
cm
rain mn
cm
humidity
%
barometer
mb
20260906103007 18 0.0 0.0 0.00 0.05 0.00 96 1010.2
20260906101506 18 0.0 0.0 0.00 0.05 0.00 96 1010.1
20260906100006 18 0.0 0.0 0.00 0.05 0.00 96 1009.6
20260906094504 18 0.0 0.0 0.00 0.05 0.00 97 1009.4
20260906093011 18 0.0 0.0 0.00 0.05 0.00 97 1009.5
20260906091504 18 0.0 0.0 0.00 0.05 0.00 96 1009.6
20260906090003 18 0.0 0.0 0.00 0.05 0.00 96 1009.7
20260906084502 18 0.0 0.0 0.00 0.05 0.00 96 1009.5
20260906083002 18 0.0 0.0 0.00 0.05 0.00 96 1009.3
20260906081600 18 0.0 0.0 0.00 0.05 0.00 95 1009.3
20260906074600 18 0.0 0.0 0.00 0.05 0.00 94 1009.0
20260906073057 18 0.0 0.0 0.00 0.05 0.00 94 1009.1
20260906071555 19 0.0 0.0 0.00 0.05 0.00 93 1009.0
20260906070053 19 0.0 0.0 0.00 0.05 0.00 93 1009.2
20260906064551 19 0.0 0.0 0.00 0.05 0.00 92 1009.5
20260906063049 19 0.0 0.0 0.00 0.05 0.00 92 1009.8
20260906061548 19 0.0 0.0 0.00 0.05 0.00 92 1009.8
20260906060057 19 0.0 0.0 0.00 0.05 0.00 92 1009.8
20260906054548 19 0.0 0.0 0.00 0.05 0.00 92 1010.0
20260906053046 19 0.0 0.0 0.00 0.05 0.00 92 1009.9
20260906051545 20 0.0 0.0 0.00 0.05 0.00 92 1010.0
20260906050046 20 0.0 0.0 0.00 0.05 0.00 91 1010.1
20260906044542 20 0.0 0.0 0.00 0.05 0.00 91 1010.1
20260906043043 20 0.0 0.0 0.00 0.05 0.00 91 1010.1
20260906041546 20 0.0 0.0 0.00 0.05 0.00 91 1010.3
20260906040046 20 0.0 0.0 0.00 0.05 0.05 91 1010.1
20260906034538 20 0.0 0.0 0.00 0.05 0.05 91 1010.4
20260906033037 20 0.0 0.0 0.00 0.05 0.05 90 1010.3
20260906031536 20 0.0 0.0 0.00 0.05 0.05 89 1010.4
20260906030036 21 0.0 0.0 0.00 0.05 0.05 87 1010.5
20260906024535 21 0.0 0.0 0.00 0.05 0.05 86 1010.5
20260906023043 21 0.0 0.0 0.00 0.05 0.05 85 1010.4
20260906021535 21 0.0 0.0 0.00 0.05 0.05 84 1010.3
20260906020035 21 0.0 0.0 0.00 0.05 0.05 84 1010.0
20260906014538 21 0.0 0.0 0.00 0.05 0.05 84 1010.0
20260906013034 21 0.0 0.0 0.00 0.05 0.05 84 1009.8
20260906011533 21 0.0 0.0 0.00 0.05 0.05 84 1009.9
20260906010032 21 0.0 0.0 0.00 0.05 0.05 85 1009.6
20260906004532 22 0.0 0.0 0.00 0.05 0.05 84 1009.1
20260906003032 22 0.0 0.0 0.00 0.05 0.05 84 1008.9
20260906001531 22 0.0 0.0 0.00 0.05 0.05 84 1008.7
20260906000031 22 0.0 0.0 0.00 0.05 0.05 85 1008.6
20260905234531 23 0.0 0.0 0.00 0.05 0.05 84 1008.6
20260905233030 23 0.0 0.0 0.00 0.05 0.05 81 1008.6
20260905231529 25 0.0 0.0 0.00 0.05 0.05 77 1008.7
20260905230029 25 0.0 0.0 0.00 0.05 0.05 74 1008.6
20260905224528 26 0.0 0.0 0.00 0.05 0.05 71 1008.7
20260905223030 27 0.0 0.0 0.00 0.05 0.05 66 1008.7
20260905221535 28 0.0 0.0 0.00 0.05 0.05 66 1008.6
20260905220026 28 0.0 0.0 0.00 0.05 0.05 61 1008.6
20260905214526 30 0.0 0.0 0.00 0.05 0.05 62 1008.7
20260905213033 30 0.0 0.0 0.00 0.05 0.05 65 1008.7
20260905211529 31 0.0 0.0 0.00 0.05 0.05 60 1008.5
20260905210028 31 0.0 0.0 0.00 0.05 0.05 62 1008.3
20260905204520 30 0.0 0.0 0.00 0.05 0.05 63 1008.5
20260905203018 29 0.0 0.0 0.00 0.05 0.05 62 1008.6
20260905201525 28 0.0 0.0 0.00 0.05 0.05 63 1008.5
20260905200017 28 0.0 0.0 0.00 0.05 0.05 65 1008.3
20260905194516 27 0.0 0.0 0.00 0.05 0.05 65 1008.1
20260905193017 27 0.0 0.0 0.00 0.05 0.05 64 1007.6
20260905191514 26 0.0 0.0 0.00 0.05 0.05 69 1007.5
20260905190014 24 0.0 0.0 0.00 0.05 0.05 77 1007.3
20260905184512 23 0.0 0.0 0.03 0.05 0.05 82 1007.7
20260905183012 22 0.0 0.0 0.05 0.05 0.05 93 1007.9
20260905181610 21 0.0 0.0 0.05 0.05 0.05 93 1008.2
20260905180006 21 0.0 0.0 0.03 0.03 0.03 92 1008.8
20260905174511 21 0.0 0.0 0.03 0.03 0.03 88 1009.6
20260905173011 22 0.0 0.0 0.00 0.00 0.00 85 1010.3
20260905171502 25 0.0 0.0 0.00 0.00 0.00 76 1010.5
20260905170003 26 0.0 0.0 0.00 0.00 0.00 72 1010.8
20260905164502 28 0.0 0.0 0.00 0.00 0.00 71 1010.8
20260905163105 30 0.0 0.0 0.00 0.00 0.00 68 1010.8
20260905161559 30 0.0 0.0 0.00 0.00 0.00 67 1010.3
20260905160059 30 0.0 0.0 0.00 0.00 0.00 69 1010.6
20260905154556 30 0.0 0.0 0.00 0.00 0.00 67 1010.7
20260905153055 30 0.0 0.0 0.00 0.00 0.00 73 1010.7
20260905151551 29 0.0 0.0 0.00 0.00 0.00 70 1010.7
20260905150049 28 0.0 0.0 0.00 0.00 0.00 73 1010.7
20260905144547 28 0.0 0.0 0.00 0.00 0.00 72 1010.5
20260905143043 27 0.0 0.0 0.00 0.00 0.00 76 1010.8
20260905141543 26 0.0 0.0 0.00 0.00 0.00 81 1010.7
20260905140034 25 0.0 0.0 0.00 0.00 0.00 84 1010.6
20260905134534 24 0.0 0.0 0.00 0.00 0.00 84 1010.5
20260905133027 23 0.0 0.0 0.00 0.00 0.00 84 1010.6
20260905131541 23 0.0 0.0 0.00 0.00 0.00 84 1010.7
20260905130020 23 0.0 0.0 0.00 0.00 0.00 85 1010.6
20260905124534 23 0.0 0.0 0.00 0.00 0.00 87 1010.6
20260905123013 22 0.0 0.0 0.00 0.00 0.00 87 1010.7
20260905121521 22 0.0 0.0 0.00 0.00 0.00 88 1010.7
20260905120011 21 0.0 0.0 0.00 0.00 0.00 89 1010.5
20260905114530 21 0.0 0.0 0.00 0.00 0.00 90 1010.4
20260905113010 21 0.0 0.0 0.00 0.00 0.00 90 1010.5
20260905111515 20 0.0 0.0 0.00 0.00 0.00 90 1010.5
20260905110008 20 0.0 0.0 0.00 0.00 0.00 92 1010.5
20260905104509 20 0.0 0.0 0.00 0.00 0.00 92 1010.3